FLOCK 4H-27 (66730 NORAD) Tracking and Keplerian Element Data

This shows tracking and keplerian element data for the satellite.

Feedback or suggestion? Click here.




ElementValue
Catalog66730
NameFLOCK 4H-27
Epoch Orbit325
Epoch Day354.18114813
Epoch Year2025
RAAN65.8267
Inclination97.4387
Eccentricity0.0001051
Argument of Perigee127.9653
Mean Anonmoly232.1676
Mean Motion15.18049887
Decay Rate5.532E-05
L11 66730U 25276BS 25354.18114813 .00005532 00000+0 27494-3 0 9993
L22 66730 97.4387 65.8267 0001051 127.9653 232.1676 15.18049887 3254



Live tracking and technical data element details for FLOCK 4H-27 (NORAD 66730). FLOCK 4H-27 can be tracked NOW for your location showing map with azimuth and elevation plus other details from your city location.







IsCatalogInMostPopularTable: catalog: 66730, numindb: 20
Update: records affected: 1



GetName: 66730 FLOCK 4H-27

Hit Count: updated at: Sat, 11 Apr 2026 21:20:41 GMT